[[{"header":{"parameterUnit":"m.s-1","parameterCategory":1,"la1":30.2991,"la2":30.254,"lo1":-89.0895,"lo2":-89.0444,"dy":0.0017,"dx":0.0017,"nx":28,"ny":28,"refTime":"2024-09-01T21:00:00:Z","depth":0,"parameterNumber":2,"parameterNumberName":"U-component_of_WINDS"},"data":[0,0,0,0,0,0,0,0,0,0,0,0,0,0,0,0,0,0,0,0,0,0,0,0,0,0,0,0,0,0,0,0,0,0,0,0,0,0,0,0,0,0,0,0,0,0,0,0,0,0,0,0,0,0,0,0,0,0,0.4738,0.4739,0,0.4853,0.4854,0.4855,0.4922,0.4923,0.4923,0.4923,0.5041,0.5044,0.5047,0,0,0,0,0,0,0,0,0,0,0,0,0,0.4577,0.4579,0.4738,0.4739,0.4741,0.4853,0.4854,0.4856,0.4922,0.4923,0.4923,0.4923,0.504,0.5043,0.5047,0,0,0,0,0,0,0,0,0,0,0,0,0,0.4665,0.458,0.4738,0.4788,0.4793,0.4852,0.4854,0.4856,0.4922,0.4923,0.4923,0.4923,0.5039,0.5043,0.5047,0.5066,0,0,0.5061,0.5062,0,0,0,0,0,0,0,0,0.466,0.4671,0.4779,0.4784,0.4791,0.4874,0.4841,0.4926,0.4922,0.4873,0.4923,0.4924,0.4985,0.4994,0.5014,0.5071,0.5076,0.5061,0.5064,0.5065,0.5067,0,0,0,0,0,0,0,0.4653,0.4666,0.4783,0.478,0.4788,0.4804,0.4817,0.4857,0.4925,0.4878,0.4883,0.4895,0.4988,0.501,0.5018,0.5078,0.5061,0.5065,0.5067,0.5069,0.5155,0.5155,0,0,0,0,0,0,0.4639,0.466,0.478,0.4787,0.4725,0.4807,0.4821,0.4847,0.4925,0.4938,0.4895,0.4898,0.5002,0.5012,0.5022,0.5048,0.5065,0.5069,0.5072,0.5156,0.5155,0.5155,0,0,0,0,0,0,0.4636,0.4649,0.4775,0.4725,0.4742,0.4809,0.4837,0.4849,0.4871,0.4938,0.4951,0.4904,0.5003,0.5016,0.5054,0.5053,0.5071,0.5075,0.5156,0.5156,0.5155,0.5101,0,0,0,0,0,0,0.4631,0.4648,0.4655,0.4725,0.4745,0.4805,0.4837,0.4851,0.4878,0.4883,0.4951,0.4962,0.5004,0.5047,0.5058,0.506,0.5079,0.5156,0.5156,0.5155,0.5103,0.5099,0.5095,0,0,0,0,0,0.4625,0.4636,0.4655,0.4669,0.4756,0.4805,0.4817,0.4865,0.4877,0.4886,0.4929,0.496,0.5052,0.5051,0.5064,0.5066,0.5157,0.5156,0.5155,0.5105,0.51,0.5095,0,0,0,0,0,0,0.4565,0.4646,0.4669,0.4702,0.4746,0.4816,0.4828,0.4858,0.4899,0.4902,0.4961,0.4975,0.5008,0.5041,0.5039,0.5088,0.5108,0.5109,0.5065,0.5061,0.5057,0.5048,0.5082,0,0,0,0,0,0.4556,0.4589,0.4658,0.4681,0.4702,0.4761,0.4784,0.4818,0.4866,0.4885,0.4931,0.4976,0.5015,0.504,0.508,0.5109,0.5124,0.5117,0.5113,0.5109,0.511,0.5127,0.5124,0.5153,0.5153,0.5153,0,0,0.4537,0.4585,0.4603,0.467,0.4708,0.4741,0.4776,0.481,0.4835,0.489,0.4929,0.4964,0.5019,0.5052,0.5069,0.5081,0.5105,0.5108,0.5105,0.5108,0.5126,0.5123,0.5121,0.5152,0.5152,0.5152,0,0,0.4519,0.4559,0.4583,0.462,0.4677,0.4716,0.4722,0.4787,0.4813,0.4853,0.4894,0.4925,0.4991,0.5028,0.5055,0.5051,0.5081,0.5062,0.5041,0.5057,0.5055,0.5053,0.5051,0.505,0.5063,0.5063,0.5063,0,0.4489,0.454,0.4591,0.4622,0.4651,0.4701,0.4725,0.4759,0.4826,0.4844,0.4856,0.494,0.498,0.5023,0.5022,0.5042,0.505,0.5055,0.5051,0.505,0.5049,0.5048,0.5047,0.506,0.5061,0.5061,0.5061,0,0.4499,0.4534,0.4547,0.4609,0.4639,0.4666,0.4721,0.4745,0.4776,0.4814,0.4853,0.4903,0.4954,0.4966,0.4997,0.5013,0.5018,0.504,0.5061,0.5043,0.5042,0.5042,0.5056,0.5057,0.5058,0.5059,0,0,0.4448,0.4538,0.4542,0.457,0.4637,0.4665,0.4694,0.4743,0.4762,0.4807,0.4833,0.4887,0.4907,0.4938,0.4973,0.4987,0.498,0.5007,0.5009,0.5,0.5,0.4983,0.4982,0.5,0.5,0.5,0.4995,0,0.4439,0.4495,0.4541,0.4579,0.4612,0.466,0.4686,0.4729,0.4765,0.4798,0.4838,0.4875,0.4899,0.4918,0.4934,0.4977,0.4981,0.4978,0.5024,0.5025,0.5009,0.4982,0.4964,0.4957,0.4996,0.4996,0.4996,0,0.4437,0.4479,0.452,0.4582,0.4598,0.462,0.4668,0.4699,0.4749,0.4774,0.4808,0.4845,0.4878,0.4895,0.4942,0.4939,0.4961,0.4984,0.4985,0.4991,0.5009,0.4986,0.4956,0.4955,0.4996,0.4996,0.4996,0,0.4394,0.4461,0.4494,0.4518,0.4591,0.4606,0.4637,0.4687,0.4714,0.4756,0.4774,0.4819,0.4844,0.4878,0.4926,0.4934,0.4967,0.4989,0.4989,0.4987,0.4993,0.4992,0.4965,0.5007,0.5007,0.5007,0.5007,0,0.438,0.4403,0.4476,0.4496,0.4523,0.4576,0.4602,0.4637,0.4682,0.471,0.4755,0.478,0.4841,0.4874,0.4911,0.4943,0.4955,0.4976,0.4985,0.4971,0.4968,0.4986,0.4987,0.5007,0.5007,0.5007,0.5007,0,0.4337,0.4387,0.4426,0.4492,0.4509,0.4526,0.4583,0.4605,0.4643,0.4677,0.4689,0.4749,0.4789,0.484,0.4897,0.4922,0.495,0.4965,0.4933,0.4939,0.4935,0.4935,0.4919,0.4919,0.4961,0.496,0.496,0,0.4324,0.4343,0.4411,0.4433,0.4463,0.4497,0.4524,0.4578,0.4604,0.4662,0.4676,0.472,0.4758,0.482,0.4869,0.4912,0.4928,0.492,0.4935,0.492,0.4928,0.4925,0.4927,0.4915,0.4915,0.4914,0.4914,0,0.4296,0.432,0.4357,0.4402,0.4433,0.4471,0.4512,0.4527,0.4588,0.4615,0.4657,0.4686,0.4744,0.4787,0.4837,0.4869,0.4901,0.4908,0.4911,0.4896,0.4877,0.4887,0.4922,0.4909,0.4909,0.4909,0.491,0.491,0.4268,0.4286,0.4337,0.4376,0.4412,0.4449,0.4472,0.4513,0.4549,0.4599,0.4629,0.4669,0.4719,0.4789,0.482,0.4852,0.4864,0.4868,0.4868,0.4868,0.4863,0.4872,0.4862,0.4862,0.4862,0.4862,0.4862,0,0.4241,0.4276,0.4312,0.4367,0.4398,0.4425,0.4471,0.4495,0.453,0.4573,0.461,0.4657,0.4699,0.4751,0.4796,0.4812,0.4827,0.4822,0.4821,0.4827,0.485,0.4844,0.4808,0.4808,0.4808,0.4808,0.4808,0.4808,0.4231,0.4264,0.4293,0.4344,0.4379,0.4419,0.4443,0.4476,0.4511,0.4562,0.4597,0.463,0.4677,0.4725,0.4765,0.4779,0.4793,0.4782,0.4801,0.4821,0.4826,0.4831,0.4825,0.4785,0.4785,0.4775,0.4775,0.4775]},{"header":{"parameterUnit":"m.s-1","parameterCategory":1,"la1":30.2991,"la2":30.254,"lo1":-89.0895,"lo2":-89.0444,"dy":0.0017,"dx":0.0017,"nx":28,"ny":28,"refTime":"2024-09-01T21:00:00:Z","depth":0,"parameterNumber":3,"parameterNumberName":"V-component_of_WINDS"},"data":[0,0,0,0,0,0,0,0,0,0,0,0,0,0,0,0,0,0,0,0,0,0,0,0,0,0,0,0,0,0,0,0,0,0,0,0,0,0,0,0,0,0,0,0,0,0,0,0,0,0,0,0,0,0,0,0,0,0,-0.513,-0.513,0,-0.5188,-0.5189,-0.5189,-0.5184,-0.5183,-0.5183,-0.5182,-0.5243,-0.5246,-0.5248,0,0,0,0,0,0,0,0,0,0,0,0,0,-0.5016,-0.5018,-0.513,-0.513,-0.5131,-0.5188,-0.5189,-0.5189,-0.5185,-0.5183,-0.5182,-0.5181,-0.5242,-0.5245,-0.5248,0,0,0,0,0,0,0,0,0,0,0,0,0,-0.5069,-0.5019,-0.5129,-0.5135,-0.5136,-0.5188,-0.5189,-0.519,-0.5185,-0.5183,-0.5182,-0.5181,-0.5241,-0.5245,-0.5249,-0.5298,0,0,-0.526,-0.5261,0,0,0,0,0,0,0,0,-0.5066,-0.5073,-0.5134,-0.5135,-0.5136,-0.5177,-0.5171,-0.5226,-0.5185,-0.5166,-0.5182,-0.518,-0.5222,-0.5228,-0.5242,-0.5301,-0.5304,-0.526,-0.5262,-0.5264,-0.5265,0,0,0,0,0,0,0,-0.5062,-0.5071,-0.5153,-0.5135,-0.5136,-0.5136,-0.5142,-0.5181,-0.5201,-0.5168,-0.5168,-0.5175,-0.5223,-0.5238,-0.5243,-0.5305,-0.526,-0.5263,-0.5266,-0.5267,-0.5408,-0.541,0,0,0,0,0,0,-0.5057,-0.5068,-0.5151,-0.5154,-0.5097,-0.5139,-0.5146,-0.5166,-0.5201,-0.5205,-0.5176,-0.5174,-0.5232,-0.5239,-0.5245,-0.5306,-0.5264,-0.5267,-0.527,-0.5407,-0.5409,-0.541,0,0,0,0,0,0,-0.5055,-0.5064,-0.5148,-0.5111,-0.5122,-0.5142,-0.5165,-0.5168,-0.5183,-0.5207,-0.521,-0.5187,-0.5232,-0.524,-0.5285,-0.5308,-0.5269,-0.5273,-0.5405,-0.5408,-0.541,-0.5428,0,0,0,0,0,0,-0.5051,-0.5064,-0.5082,-0.5111,-0.5124,-0.5187,-0.5166,-0.517,-0.5189,-0.5187,-0.5219,-0.5222,-0.5231,-0.528,-0.5289,-0.5312,-0.5275,-0.5403,-0.5406,-0.5409,-0.5425,-0.543,-0.5435,0,0,0,0,0,-0.5047,-0.5085,-0.5083,-0.5093,-0.5147,-0.5188,-0.5195,-0.5204,-0.5191,-0.521,-0.5225,-0.5221,-0.5304,-0.5284,-0.5295,-0.532,-0.5402,-0.5405,-0.5409,-0.5423,-0.5429,-0.5434,0,0,0,0,0,0,-0.5058,-0.5089,-0.5087,-0.5135,-0.5159,-0.5187,-0.5211,-0.521,-0.5239,-0.5236,-0.5246,-0.5254,-0.5299,-0.5314,-0.5291,-0.537,-0.5351,-0.5357,-0.5358,-0.5365,-0.5369,-0.5365,-0.5278,0,0,0,0,0,-0.5066,-0.5096,-0.5122,-0.5162,-0.5174,-0.5191,-0.5209,-0.5214,-0.5239,-0.5249,-0.5268,-0.5293,-0.5325,-0.5346,-0.5376,-0.5427,-0.5434,-0.545,-0.5454,-0.5458,-0.5463,-0.5492,-0.5499,-0.5422,-0.5422,-0.5422,0,0,-0.5083,-0.5103,-0.5122,-0.5164,-0.5183,-0.5215,-0.5199,-0.5233,-0.5257,-0.5254,-0.5298,-0.5313,-0.5342,-0.5391,-0.5413,-0.5404,-0.5486,-0.5463,-0.5465,-0.5468,-0.5496,-0.5504,-0.551,-0.5424,-0.5424,-0.5423,0,0,-0.513,-0.5148,-0.5183,-0.5203,-0.5232,-0.5243,-0.5252,-0.528,-0.529,-0.5334,-0.5333,-0.5362,-0.5416,-0.5437,-0.5454,-0.551,-0.5508,-0.552,-0.5545,-0.5573,-0.5579,-0.5585,-0.5605,-0.5612,-0.5525,-0.5525,-0.5525,0,-0.5147,-0.5194,-0.5202,-0.5237,-0.5256,-0.5255,-0.5291,-0.531,-0.5348,-0.5361,-0.5351,-0.5419,-0.5439,-0.5492,-0.5506,-0.552,-0.5531,-0.5516,-0.5577,-0.5583,-0.5588,-0.5608,-0.5615,-0.5526,-0.5526,-0.5526,-0.5525,0,-0.5214,-0.5247,-0.5272,-0.5308,-0.533,-0.5366,-0.538,-0.5402,-0.5405,-0.5417,-0.5463,-0.5486,-0.5521,-0.5535,-0.5538,-0.5589,-0.5583,-0.5575,-0.5557,-0.5597,-0.5615,-0.5623,-0.5528,-0.5527,-0.5527,-0.5527,0,0,-0.5269,-0.5309,-0.5319,-0.5335,-0.5367,-0.5393,-0.5429,-0.5464,-0.5482,-0.5508,-0.5539,-0.5585,-0.5578,-0.5599,-0.5604,-0.5629,-0.5672,-0.5618,-0.5619,-0.5628,-0.5731,-0.5737,-0.5746,-0.5671,-0.5673,-0.5674,-0.5729,0,-0.5319,-0.5382,-0.5391,-0.5446,-0.5477,-0.5477,-0.5509,-0.5532,-0.5545,-0.5574,-0.5588,-0.5621,-0.5609,-0.5621,-0.5646,-0.5662,-0.5693,-0.5658,-0.5701,-0.5702,-0.5694,-0.5755,-0.5762,-0.5812,-0.5736,-0.5737,-0.5738,0,-0.5386,-0.5414,-0.5472,-0.5501,-0.5514,-0.5542,-0.5575,-0.5602,-0.5629,-0.5637,-0.566,-0.5663,-0.5701,-0.5681,-0.5734,-0.571,-0.5728,-0.5739,-0.5741,-0.5746,-0.5723,-0.5762,-0.5829,-0.5836,-0.575,-0.5749,-0.5748,0,-0.542,-0.5473,-0.5515,-0.5529,-0.5563,-0.5583,-0.5599,-0.5624,-0.5645,-0.5674,-0.5687,-0.572,-0.5738,-0.5764,-0.5776,-0.576,-0.5829,-0.581,-0.5837,-0.5837,-0.5852,-0.585,-0.5923,-0.5863,-0.5863,-0.5862,-0.5862,0,-0.5475,-0.5512,-0.5531,-0.5557,-0.5597,-0.5608,-0.5648,-0.5663,-0.5686,-0.5716,-0.5718,-0.5745,-0.576,-0.579,-0.58,-0.5843,-0.5851,-0.5859,-0.5861,-0.5859,-0.5858,-0.5871,-0.5868,-0.5865,-0.5864,-0.5864,-0.5863,0,-0.5521,-0.5535,-0.5581,-0.561,-0.5618,-0.5647,-0.5672,-0.5698,-0.5711,-0.5748,-0.5757,-0.5778,-0.5814,-0.5828,-0.5872,-0.5879,-0.5928,-0.5928,-0.5919,-0.592,-0.5947,-0.5944,-0.603,-0.6042,-0.5974,-0.5974,-0.5975,0,-0.5555,-0.5583,-0.5615,-0.5634,-0.565,-0.5682,-0.5703,-0.5714,-0.5736,-0.577,-0.5792,-0.5827,-0.5856,-0.5914,-0.5933,-0.5967,-0.5967,-0.5995,-0.5973,-0.597,-0.5969,-0.5967,-0.597,-0.5999,-0.6,-0.6001,-0.6001,0,-0.5615,-0.562,-0.565,-0.5682,-0.5707,-0.5733,-0.5759,-0.5775,-0.5791,-0.5815,-0.5852,-0.5874,-0.5919,-0.5955,-0.599,-0.6007,-0.6007,-0.6008,-0.6016,-0.6014,-0.6008,-0.6013,-0.5931,-0.6006,-0.6006,-0.6005,-0.6005,-0.6005,-0.5656,-0.5681,-0.5707,-0.574,-0.5761,-0.5785,-0.5811,-0.5827,-0.5857,-0.5894,-0.59,-0.5939,-0.5967,-0.6014,-0.6032,-0.6063,-0.6056,-0.6068,-0.6071,-0.6074,-0.6076,-0.6003,-0.607,-0.607,-0.607,-0.6069,-0.6069,0,-0.5716,-0.5733,-0.5763,-0.5799,-0.5826,-0.5823,-0.5851,-0.5874,-0.5908,-0.5934,-0.5962,-0.6005,-0.604,-0.6062,-0.6097,-0.6118,-0.6119,-0.6127,-0.6126,-0.613,-0.608,-0.607,-0.6126,-0.6126,-0.6126,-0.6126,-0.6126,-0.6126,-0.575,-0.5792,-0.5801,-0.5854,-0.5872,-0.591,-0.5926,-0.5949,-0.5969,-0.6016,-0.6045,-0.6059,-0.6084,-0.6121,-0.6154,-0.6159,-0.6173,-0.6181,-0.6186,-0.6139,-0.6133,-0.6128,-0.6118,-0.6184,-0.6184,-0.6234,-0.6234,-0.6235]}]]